Regional Weather Roundup
Issued by NWS Northern Indiana

Current Version | Previous Version | Text Only | Print | Product List | Glossary On
Versions: 1 2 3 4 5 6 7 8 9 10 11 12 13 14 15 16 17 18 19 20 21 22 23 24 25 26 27 28 29 30 31 32 33 34 35 36 37 38 39 40 41 42 43 44 45 46 47 48 49 50
000
ASUS43 KIWX 221410
RWRIWX

KIWX WEATHER ROUNDUP
NATIONAL WEATHER SERVICE NORTHERN INDIANA
1000 AM EDT WED OCT 22 2014

NOTE: "FAIR" INDICATES FEW OR NO CLOUDS BELOW 12,000 FEET WITH NO
SIGNIFICANT WEATHER AND/OR OBSTRUCTIONS TO VISIBILITY.

* THESE STATIONS ARE NOT UNDER NWS QUALITY CONTROL. THEY ALSO MAY NOT
  REPORT WEATHER SUCH AS PRECIPITATION OR FOG.

INZ001>027-221500-
NORTHERN INDIANA

CITY           SKY/WX    TMP DP  RH WIND       PRES   REMARKS
GARY*          SUNNY     43  37  81 SE3       30.37R
VALPARAISO     SUNNY     42  38  85 E6        30.36R
MICHIGAN CITY* SUNNY     41  37  87 E3        30.37R
LAPORTE*       SUNNY     43  39  88 E7        30.36R FOG
KNOX*          SUNNY     37  36  94 E5        30.35R
SOUTH BEND     SUNNY     42  36  79 VRB5      30.36R
ELKHART*       MOSUNNY   39  36  87 N3        30.36R
GOSHEN         SUNNY     40  36  86 N5        30.35R
MONTICELLO*    SUNNY     41  37  85 NE3       30.34R
LOGANSPORT*    SUNNY     41  34  75 NE5       30.35R
ROCHESTER*     SUNNY     43  39  87 E7        30.34S
WARSAW*        SUNNY     41  37  87 NE3       30.34R
ANGOLA*        CLOUDY    41  30  65 NE6       30.33R
FORT WAYNE     MOSUNNY   45  39  79 N6        30.34R
HUNTINGTON*    SUNNY     43  38  83 NE6       30.33R
PERU/GRISSOM   SUNNY     41  41 100 NE7       30.33R
MARION*        CLOUDY    40  36  86 NE3       30.33S

$$
INZ028>050-221500-
CENTRAL INDIANA

CITY           SKY/WX    TMP DP  RH WIND       PRES   REMARKS
LAFAYETTE      SUNNY     42  37  82 E7        30.34R
KOKOMO*        SUNNY     43  36  75 NE8       30.34S
MUNCIE*        CLOUDY    44  38  79 NE7       30.32R
INDIANAPOLIS   MOSUNNY   44  37  76 NE8       30.31R

$$
MIZ043>046-050>051-056>058-064>065-071>073-077>080-221500-
SOUTHWEST LOWER MICHIGAN

CITY           SKY/WX    TMP DP  RH WIND       PRES   REMARKS
BATTLE CREEK   CLOUDY    42  37  82 NE6       30.35R
BENTON HARBOR  SUNNY     40  36  86 E5        30.36S
COLDWATER*     CLOUDY    42  39  87 NE8       30.34R
HILLSDALE*     CLOUDY    43  39  86 N7        30.33R
HOLLAND        SUNNY     40  35  83 E3        30.38R
GRAND RAPIDS   MOSUNNY   37  33  85 CALM      30.37R
KALAMAZOO      PTSUNNY   41  37  86 N5        30.36R
STURGIS*       SUNNY     39  37  93 CALM      30.34R
THREE RIVERS*  FAIR      40  38  90 CALM      30.35R

$$
OHZ001>008-015>018-024>025-221500-
NORTHWEST OHIO

CITY           SKY/WX    TMP DP  RH WIND       PRES   REMARKS
WAUSEON*       CLOUDY    45  39  81 N7        30.33R
DEFIANCE       CLOUDY    46  38  73 N9        30.33R
FINDLAY        CLOUDY    47  39  74 N13       30.30R
TOLEDO EXPRESS CLOUDY    44  38  79 N6        30.32R
TOLEDO METCALF CLOUDY    47  38  71 N9        30.32R
LIMA           CLOUDY    46  39  76 N8        30.30R

$$
AND FOR LAKE MICHIGAN COASTAL AND OPEN LAKE BUOY OBSERVATIONS

STATION/POSITION TEMP    WIND        PRES    VSBY  WAVE
                 AIR SEA DIR/SP/G                  HT/PER
                 (F)     (DEG/KT/KT) (MB)    (MI)  (FT/S)
CALUMET HARBOR    45     210/  3/  4 1026.8R
MICHIGAN CITY     41      90/  8/ 11   N/A
SAINT JOSEPH      40                 1028.8R
SOUTH LAKE BUOY   47 54   90/  8/ 10 1028.6R         2/ 4
MICHIGAN CITY CG                       N/A       6   1

$$
&&



USA.gov is the U.S. government's official web portal to all federal, state and local government web resources and services.